Wind_Speed
49 47 45 43 41 40 40 39 40 41 41 41 41 40 40 40 40 39 39 39 38 37 37 36 36 37 37 37 37 38 35 33 32 32 32 31 31 34 32 30 29 27 26 23 24 25 26
54 52 49 47 47 44 43 43 41 42 44 43 42 42 42 41 40 39 39 39 39 38 37 36 36 36 34 34 36 35 33 32 31 32 30 29 28 26 24 26 23 20 20 19 19 21 20
58 55 51 51 50 49 47 46 45 44 44 46 44 43 43 43 42 41 40 39 39 38 37 36 35 36 36 37 37 34 33 33 32 32 31 30 27 24 21 24 20 18 18 17 17 15 13
60 58 55 52 53 51 50 49 48 46 45 46 47 46 44 43 44 43 42 41 40 39 39 39 39 40 42 39 41 39 39 39 37 36 35 33 29 26 22 25 22 19 18 16 13 12 15
60 59 59 55 54 54 52 51 50 49 47 46 47 48 48 46 45 44 43 43 43 43 43 41 41 40 40 37 40 40 38 37 38 37 36 34 31 29 24 28 25 20 17 13 11 14 16
61 59 59 57 55 56 54 54 52 51 50 47 47 47 47 48 48 47 46 45 45 44 44 40 37 36 32 32 34 32 31 31 31 30 30 31 31 31 28 27 24 18 14 13 12 14 15
61 61 59 59 57 57 56 55 54 53 52 50 48 48 47 47 46 46 46 47 47 45 39 36 35 37 33 32 31 26 27 28 30 28 25 28 29 30 28 26 23 20 13 15 15 16 16
55 62 62 60 60 59 57 57 55 54 54 53 50 49 47 46 45 44 44 46 45 41 35 35 35 32 26 26 24 23 23 19 19 22 22 25 27 27 28 29 22 20 18 18 17 18 20
49 56 63 63 63 62 59 58 57 56 56 54 52 50 49 47 45 45 47 46 43 39 35 34 33 29 26 24 25 24 24 20 17 19 24 25 23 26 28 29 23 24 22 20 20 21 21
46 50 57 64 64 64 63 61 59 58 57 56 54 53 50 49 47 48 49 46 44 38 37 35 34 34 31 31 27 26 25 23 20 20 24 24 21 23 25 25 22 26 26 24 26 25 24
43 47 50 56 64 63 64 62 61 60 58 57 55 54 51 50 50 49 50 48 45 43 41 39 38 36 34 31 29 28 27 25 21 21 23 21 21 24 28 26 24 25 25 27 28 28 25
34 42 47 50 55 63 66 65 64 61 60 59 56 56 53 52 52 51 51 49 49 48 46 44 42 40 36 34 32 29 26 22 22 23 22 20 26 29 28 25 27 26 30 32 33 30 27
23 30 39 46 50 55 63 68 67 65 63 62 59 57 55 53 53 53 53 52 52 52 50 46 45 42 38 37 35 30 24 21 20 21 20 23 26 27 27 28 28 27 32 33 33 31 26
18 22 29 36 44 50 56 65 69 68 65 64 62 59 57 56 54 55 54 55 54 51 50 50 49 46 43 40 37 32 26 22 20 17 21 22 24 24 24 25 23 22 24 27 32 30 25
14 18 21 28 36 42 49 56 66 69 68 66 65 62 61 59 56 55 57 58 55 53 52 50 49 49 46 44 39 34 30 27 24 20 19 18 19 20 23 24 25 28 31 33 33 30 29
12 13 16 21 28 35 43 51 57 68 71 70 68 66 64 61 58 56 56 59 57 56 54 51 50 48 45 43 39 36 33 30 26 23 20 17 16 16 19 23 26 27 31 31 31 33 35
9 10 12 15 20 26 33 42 50 58 70 72 71 69 68 63 61 61 61 62 61 57 52 49 50 48 45 42 40 38 38 36 31 28 27 24 21 18 20 23 24 27 29 30 27 30 35
7 7 9 12 14 19 26 34 42 50 58 69 73 72 72 68 65 65 67 64 57 54 52 51 50 48 47 42 40 41 43 42 37 34 30 28 26 25 25 25 25 25 26 27 28 29 31
6 4 7 9 11 14 18 26 33 40 48 57 67 73 75 73 70 69 70 67 60 57 54 53 50 52 47 44 44 45 46 43 39 38 37 36 34 30 30 30 28 27 26 25 25 27 29
6 4 3 6 9 12 15 18 23 31 38 45 52 62 70 74 73 73 74 69 65 59 56 53 51 50 47 46 47 48 46 45 44 43 42 38 38 35 32 32 31 28 28 27 26 26 27
5 5 3 4 6 9 12 15 18 22 25 31 39 47 55 62 68 71 73 71 66 61 59 55 52 49 47 48 49 47 48 48 47 46 41 38 38 33 30 33 30 28 28 27 26 26 28
6 5 5 4 5 7 9 11 14 18 22 25 29 35 41 46 53 60 69 68 63 62 59 60 53 51 51 51 49 48 47 47 46 43 40 37 33 31 33 35 32 26 27 29 30 30 29
7 7 6 6 6 8 11 12 13 15 19 22 25 27 33 37 43 49 57 55 54 60 61 60 54 54 54 52 50 49 47 46 44 42 40 38 35 31 32 35 33 28 30 31 30 33 30
10 9 8 8 7 7 10 13 13 14 17 20 22 24 28 32 36 41 45 39 45 52 55 58 58 56 55 51 48 47 44 46 44 42 40 40 41 37 35 38 35 30 34 36 36 34 32
13 12 12 11 11 9 9 11 13 14 16 16 18 22 22 25 29 32 33 30 39 47 52 56 55 54 55 53 50 51 48 45 42 40 41 42 41 40 38 39 37 34 37 38 37 36 35
15 15 15 14 14 12 9 10 11 13 13 14 16 17 21 24 27 28 27 30 34 40 48 54 60 58 55 52 52 54 49 47 44 42 43 43 42 40 40 36 36 37 40 36 33 36 37
18 17 16 16 15 15 13 10 10 12 12 13 13 16 19 23 26 28 30 32 32 35 41 51 56 56 47 39 42 43 48 54 46 43 42 43 38 39 40 39 36 41 35 34 32 35 39
21 19 18 17 16 14 15 12 10 10 12 12 12 13 17 20 24 26 27 31 30 34 38 50 54 57 54 45 42 48 48 54 50 44 44 45 45 45 43 41 38 39 37 38 36 37 41
22 22 18 16 16 14 14 15 14 10 10 12 12 13 15 18 21 26 27 29 28 33 40 48 57 56 54 54 54 51 48 47 52 47 49 47 45 45 43 42 39 42 43 39 44 39 45
Wind_Direction
254 249 246 246 241 240 233 229 231 230 228 227 229 229 229 231 231 232 234 235 235 237 239 242 245 249 251 253 254 256 260 262 262 261 262 263 264 267 269 265 267 268 268 274 278 273 270
255 251 247 245 242 239 236 231 229 231 230 228 227 229 229 228 230 232 232 234 236 237 239 240 242 246 248 249 252 254 256 257 258 259 258 260 263 270 274 267 267 267 270 275 281 279 261
253 251 247 244 241 239 237 233 229 229 231 230 229 227 229 230 228 230 232 233 234 236 240 243 248 251 252 251 256 257 259 257 258 259 261 263 267 271 277 276 273 272 273 283 285 265 221
248 248 246 243 240 239 237 235 231 229 229 231 231 229 227 229 231 231 232 235 236 240 242 249 253 256 256 257 257 257 256 258 259 259 259 262 264 265 266 270 267 270 274 281 279 220 198
244 243 243 242 238 237 236 235 234 230 229 230 231 231 231 229 231 233 234 236 238 241 247 252 257 258 260 258 257 258 261 262 261 261 260 260 259 256 255 263 265 267 271 273 264 210 200
239 239 239 239 236 234 236 235 234 232 229 229 230 231 232 232 232 234 237 240 243 246 250 252 251 255 258 255 254 256 257 257 257 257 259 258 251 249 247 258 264 258 262 256 234 218 208
235 235 236 235 234 232 233 234 234 232 230 229 230 231 231 231 232 234 238 242 244 245 246 244 242 245 246 247 250 250 252 255 260 261 259 253 250 245 246 248 256 256 241 245 234 222 227
235 233 232 233 232 231 232 231 233 233 231 228 229 230 230 231 231 232 234 237 239 240 239 239 237 241 239 240 246 245 250 259 269 263 257 255 250 244 239 242 246 250 241 235 237 228 229
234 233 232 231 230 230 230 231 231 232 231 230 228 229 230 230 230 230 232 235 237 236 233 231 230 229 232 233 245 250 259 260 268 265 254 251 253 244 240 243 239 248 242 232 230 237 244
235 233 232 230 229 229 228 230 230 230 230 230 229 228 229 229 229 230 231 232 233 232 229 226 227 229 230 236 244 250 257 261 261 266 258 257 251 244 241 245 245 248 244 233 231 235 242
237 235 233 231 229 228 227 228 229 229 229 229 229 229 228 229 229 230 232 230 230 230 228 225 229 233 236 242 246 253 259 261 257 259 259 258 250 239 237 237 240 244 241 239 235 235 239
240 237 235 233 230 227 227 227 227 229 229 228 229 229 228 228 229 230 232 232 231 230 230 229 232 236 240 244 247 253 259 255 251 252 257 251 243 240 243 237 239 240 239 235 236 240 240
247 241 236 232 230 227 226 225 226 228 228 228 228 228 229 228 229 230 231 233 232 232 232 233 237 239 242 246 251 256 249 247 246 247 251 247 247 247 245 242 246 246 246 243 247 247 249
253 242 237 233 230 228 225 223 224 225 227 227 228 227 228 229 229 230 231 233 234 234 235 234 236 238 240 243 248 249 240 242 247 249 248 250 250 248 243 247 259 268 266 256 247 247 250
263 248 239 232 228 226 225 223 222 223 225 226 228 228 229 229 230 230 232 233 234 234 235 235 237 239 241 243 245 242 236 239 241 242 248 256 259 255 255 254 250 243 242 242 243 245 244
270 253 243 234 229 226 224 222 222 221 223 224 227 228 229 230 231 233 234 235 234 233 234 235 236 238 239 241 239 235 236 239 242 244 250 254 261 262 259 256 251 249 253 255 252 243 241
275 255 241 235 229 226 224 223 222 223 223 224 226 228 229 230 231 233 236 236 235 235 235 236 237 238 239 239 241 237 235 236 239 245 251 254 261 268 268 260 257 256 255 256 254 257 251
298 262 240 229 227 225 223 222 222 223 224 225 226 227 229 229 230 232 236 238 238 239 237 237 238 238 238 237 238 236 236 240 246 249 252 258 261 268 270 272 270 266 263 260 258 255 253
318 298 252 236 226 225 226 224 223 225 226 226 227 227 229 230 232 233 236 238 236 237 235 234 235 237 237 235 233 236 237 241 244 246 249 256 260 264 268 267 268 269 269 268 264 260 255
333 314 281 244 230 227 226 225 224 226 226 227 229 229 230 232 232 233 235 236 237 238 238 235 235 238 238 235 234 235 238 241 244 248 252 256 260 261 263 262 262 262 261 261 262 255 250
323 326 302 267 234 228 230 229 226 226 227 228 228 229 231 232 233 235 237 237 237 236 238 236 234 236 238 238 237 237 239 241 244 250 254 256 260 259 258 258 256 260 264 260 258 257 255
280 299 304 290 263 246 240 232 229 228 227 228 227 227 230 231 233 234 236 236 235 234 233 236 233 231 233 235 238 239 240 243 245 248 251 252 251 253 255 258 253 256 258 258 260 261 255
276 272 279 284 281 259 250 242 238 241 238 233 229 228 229 228 228 229 233 235 233 233 230 234 232 232 233 234 236 237 239 241 244 246 249 250 246 250 254 257 255 249 249 254 256 258 261
289 266 264 264 273 275 262 251 245 246 242 239 236 229 228 229 228 228 231 228 225 225 225 226 228 228 231 233 235 236 236 240 241 242 243 245 246 246 247 248 252 251 252 256 256 255 257
285 285 262 263 260 267 276 261 246 251 248 243 237 233 229 228 227 230 229 217 222 221 217 218 221 221 228 229 230 233 233 236 239 238 238 243 246 247 246 249 253 253 253 257 262 263 256
276 284 273 257 259 256 266 272 253 247 249 241 236 232 225 222 221 219 216 207 215 219 216 215 215 216 221 225 230 233 229 233 233 235 236 240 243 247 245 246 252 256 257 263 261 255 253
267 274 278 256 253 251 258 272 270 247 250 240 235 235 230 223 225 222 215 211 204 217 217 213 213 208 206 207 208 220 224 229 230 235 237 239 240 237 239 243 243 250 252 261 254 243 248
263 263 274 254 244 247 251 261 273 265 246 246 238 236 236 233 227 226 223 216 206 214 210 213 216 214 207 206 217 218 220 226 227 227 236 238 236 234 234 240 249 253 254 254 253 253 252
263 258 260 255 238 242 247 254 260 273 254 244 246 238 237 235 230 224 220 217 211 216 212 210 213 213 213 216 217 226 223 225 226 225 231 234 237 237 241 247 247 252 255 259 258 261 258
Height
10859 10862 10865 10867 10870 10873 10876 10879 10884 10887 10891 10895 10900 10904 10908 10912 10916 10920 10923 10926 10929 10932 10935 10937 10940 10941 10944 10947 10948 10949 10953 10956 10958 10959 10960 10964 10965 10965 10970 10967 10966 10967 10967 10968 10968 10966 10966
10846 10850 10854 10858 10861 10864 10867 10871 10875 10880 10884 10888 10892 10897 10901 10905 10910 10913 10916 10920 10923 10927 10930 10932 10934 10936 10939 10941 10941 10944 10947 10950 10951 10952 10956 10958 10958 10960 10963 10960 10962 10963 10962 10962 10962 10961 10961
10831 10836 10842 10846 10850 10854 10858 10862 10866 10870 10875 10880 10885 10888 10894 10899 10903 10907 10910 10914 10917 10920 10923 10926 10929 10930 10932 10934 10935 10940 10942 10943 10945 10948 10950 10952 10955 10956 10958 10955 10955 10957 10957 10957 10957 10957 10958
10816 10821 10828 10834 10839 10844 10848 10852 10857 10861 10866 10871 10876 10881 10886 10892 10896 10900 10904 10908 10911 10915 10918 10921 10923 10924 10924 10930 10930 10933 10935 10937 10939 10940 10943 10947 10950 10951 10952 10950 10951 10952 10952 10953 10954 10954 10955
10799 10806 10813 10820 10826 10832 10837 10842 10847 10851 10857 10862 10867 10872 10878 10884 10889 10894 10898 10901 10904 10909 10912 10916 10917 10918 10920 10923 10923 10925 10929 10931 10930 10933 10936 10939 10943 10944 10946 10943 10948 10949 10948 10950 10951 10951 10952
10783 10791 10798 10806 10813 10820 10826 10831 10836 10842 10847 10852 10858 10864 10869 10875 10881 10887 10891 10894 10898 10902 10905 10910 10911 10912 10916 10916 10915 10919 10922 10922 10923 10925 10929 10931 10934 10937 10940 10939 10944 10946 10945 10945 10947 10949 10950
10767 10775 10783 10791 10799 10806 10813 10820 10826 10832 10838 10843 10849 10855 10861 10866 10872 10878 10884 10887 10890 10893 10898 10902 10904 10903 10908 10908 10910 10913 10915 10916 10918 10921 10923 10924 10927 10931 10934 10935 10939 10941 10941 10942 10943 10944 10947
10752 10759 10768 10776 10784 10793 10800 10808 10815 10821 10828 10834 10840 10846 10852 10858 10864 10871 10874 10875 10880 10887 10892 10894 10896 10898 10903 10905 10906 10908 10910 10913 10914 10916 10918 10919 10921 10926 10928 10930 10935 10936 10936 10937 10940 10942 10944
10739 10745 10753 10761 10770 10779 10788 10796 10803 10810 10817 10824 10831 10837 10843 10850 10856 10861 10863 10869 10874 10881 10886 10888 10890 10895 10898 10901 10901 10904 10906 10909 10911 10911 10912 10913 10918 10920 10922 10925 10931 10933 10933 10935 10938 10939 10941
10727 10732 10738 10746 10755 10765 10775 10784 10791 10799 10806 10814 10821 10828 10835 10842 10847 10851 10854 10861 10867 10874 10878 10883 10886 10888 10892 10894 10898 10899 10901 10905 10907 10907 10907 10910 10914 10917 10919 10922 10927 10928 10930 10931 10932 10934 10937
10716 10721 10726 10733 10741 10752 10762 10771 10779 10787 10795 10803 10811 10818 10826 10832 10837 10842 10846 10853 10860 10865 10871 10877 10879 10882 10886 10890 10893 10895 10896 10900 10903 10903 10904 10906 10910 10912 10912 10916 10920 10922 10926 10927 10928 10930 10933
10707 10710 10715 10721 10728 10737 10747 10757 10766 10775 10784 10792 10800 10807 10816 10822 10828 10833 10837 10844 10851 10856 10862 10869 10873 10876 10881 10884 10887 10890 10893 10895 10897 10898 10900 10903 10903 10905 10906 10912 10913 10916 10917 10919 10921 10926 10930
10699 10701 10704 10709 10716 10724 10732 10742 10753 10763 10771 10780 10789 10797 10805 10811 10817 10822 10827 10833 10839 10845 10854 10863 10867 10872 10876 10878 10881 10885 10889 10891 10892 10894 10896 10897 10898 10900 10903 10906 10908 10911 10912 10915 10919 10923 10928
10694 10694 10696 10700 10705 10712 10719 10728 10739 10750 10759 10769 10777 10787 10794 10800 10806 10812 10817 10822 10829 10840 10846 10853 10857 10862 10867 10871 10875 10880 10884 10887 10888 10891 10891 10892 10894 10896 10899 10902 10904 10908 10910 10913 10916 10921 10925
10689 10689 10690 10693 10696 10702 10708 10716 10726 10737 10747 10757 10766 10775 10782 10789 10796 10802 10807 10811 10821 10829 10835 10842 10849 10854 10859 10864 10869 10875 10880 10882 10884 10886 10887 10889 10891 10893 10895 10898 10899 10900 10901 10903 10908 10914 10918
10686 10685 10686 10687 10689 10693 10698 10706 10714 10724 10733 10744 10753 10763 10770 10780 10787 10793 10798 10802 10810 10816 10824 10833 10839 10846 10852 10858 10863 10870 10875 10878 10881 10882 10884 10885 10887 10889 10891 10891 10893 10894 10895 10898 10902 10904 10908
10683 10682 10682 10683 10685 10687 10692 10698 10705 10713 10721 10732 10741 10751 10758 10769 10776 10782 10785 10789 10796 10807 10819 10828 10832 10840 10847 10853 10860 10866 10869 10871 10874 10877 10878 10880 10882 10884 10885 10886 10887 10888 10890 10892 10896 10898 10900
10681 10680 10680 10680 10682 10683 10686 10690 10696 10703 10710 10719 10728 10738 10746 10755 10763 10768 10769 10777 10794 10803 10813 10818 10825 10831 10838 10848 10854 10857 10859 10864 10869 10872 10873 10875 10876 10878 10879 10880 10882 10883 10885 10887 10889 10890 10892
10679 10678 10677 10678 10679 10681 10682 10685 10690 10695 10700 10707 10715 10724 10732 10741 10750 10756 10758 10768 10782 10790 10799 10807 10815 10819 10830 10839 10844 10847 10851 10857 10862 10863 10865 10867 10870 10873 10873 10875 10877 10879 10879 10880 10881 10883 10883
10679 10677 10676 10676 10677 10678 10680 10682 10685 10688 10692 10698 10705 10712 10718 10727 10736 10741 10745 10757 10768 10782 10789 10799 10807 10812 10821 10828 10833 10839 10844 10849 10852 10853 10856 10860 10862 10865 10867 10869 10871 10873 10873 10873 10874 10873 10873
10678 10676 10675 10674 10675 10676 10677 10679 10681 10684 10687 10691 10696 10701 10706 10715 10723 10730 10734 10746 10759 10773 10779 10789 10798 10804 10811 10818 10823 10829 10834 10838 10843 10845 10849 10853 10855 10857 10859 10860 10865 10867 10867 10867 10866 10864 10864
10676 10675 10674 10673 10673 10674 10674 10675 10678 10680 10682 10685 10689 10693 10698 10705 10711 10718 10719 10731 10749 10760 10770 10773 10785 10793 10798 10804 10812 10818 10824 10829 10833 10837 10841 10844 10847 10849 10849 10850 10856 10860 10857 10857 10857 10856 10856
10673 10673 10673 10672 10671 10672 10672 10673 10675 10676 10678 10680 10684 10688 10691 10695 10699 10703 10707 10721 10738 10745 10755 10761 10774 10781 10786 10792 10800 10806 10815 10819 10824 10829 10833 10836 10839 10840 10841 10840 10845 10850 10848 10848 10849 10848 10850
10671 10670 10670 10671 10670 10670 10670 10670 10672 10673 10674 10676 10678 10682 10685 10688 10691 10694 10699 10715 10722 10728 10739 10752 10760 10767 10775 10784 10791 10797 10806 10808 10813 10820 10825 10826 10829 10832 10832 10831 10836 10841 10840 10839 10840 10841 10843
10668 10667 10667 10667 10667 10667 10667 10667 10668 10669 10670 10672 10674 10676 10679 10682 10685 10689 10696 10707 10710 10716 10728 10736 10748 10757 10763 10772 10780 10783 10793 10798 10804 10810 10813 10815 10820 10822 10824 10824 10829 10832 10832 10833 10833 10834 10834
10664 10664 10663 10663 10664 10664 10664 10664 10664 10665 10666 10668 10669 10671 10674 10676 10679 10683 10691 10696 10702 10708 10715 10724 10731 10744 10753 10760 10766 10773 10781 10788 10794 10798 10802 10806 10810 10813 10815 10819 10822 10822 10823 10825 10827 10824 10827
10660 10660 10659 10658 10659 10660 10660 10661 10660 10661 10662 10663 10665 10666 10669 10671 10675 10679 10684 10688 10695 10701 10707 10714 10723 10731 10743 10749 10756 10763 10771 10778 10785 10788 10793 10798 10802 10804 10807 10811 10812 10813 10816 10816 10817 10818 10818
10656 10656 10655 10654 10655 10656 10656 10657 10657 10657 10659 10660 10662 10663 10665 10667 10671 10675 10679 10685 10691 10695 10699 10707 10714 10721 10729 10739 10747 10754 10761 10769 10776 10780 10784 10788 10791 10795 10799 10802 10803 10805 10806 10808 10810 10811 10810
10650 10651 10651 10650 10650 10652 10653 10653 10654 10654 10655 10657 10658 10660 10661 10663 10666 10669 10674 10679 10685 10688 10694 10700 10705 10713 10722 10727 10734 10743 10753 10761 10766 10771 10774 10780 10783 10786 10791 10793 10794 10795 10797 10799 10801 10802 10803